STARLINK-5274 (55395 NORAD) Tracking and Keplerian Element Data

This shows tracking and keplerian element data for the satellite.

Feedback or suggestion? Click here.




ElementValue
Catalog55395
NameSTARLINK-5274
Epoch Orbit1518
Epoch Day127.12829927
Epoch Year2023
RAAN181.346
Inclination70.0001
Eccentricity0.0003339
Argument of Perigee259.2476
Mean Anonmoly100.8344
Mean Motion15.69896828
Decay Rate-4.078E-05
L11 55395U 23014E 23127.12829927 -.00004078 00000+0 -32198-4 0 9999
L22 55395 70.0001 181.3460 0003339 259.2476 100.8344 15.69896828 15180



Live tracking and technical data element details for STARLINK-5274 (NORAD 55395). STARLINK-5274 can be tracked NOW for your location showing map with azimuth and elevation plus other details from your city location.







IsCatalogInMostPopularTable: catalog: 55395, numindb: 2
Update: records affected: 1



GetName: 55395 STARLINK-5274

Hit Count: updated at: Mon, 05 Jun 2023 19:59:44 GMT